Hourly Data Report for July 19, 2019

PITT MEADOWS CS
BRITISH COLUMBIA
Current Station Operator: ECCC - MSC

49°12'29.964" N
122°41'24.076" W
5.00 m
1106178
71775
WMM

Download Data

Hourly Data (July 2019)
Hourly Data Report for July 19, 2019
TIME
LST
Temp Definition
°C
Dew Point Definition
°C
Rel Hum Definition
%
Precip. Amount Definition
mm

Wind Dir Definition
10's deg

Wind Spd Definition
km/h
Visibility Definition
km
Stn Press Definition
kPa
Hmdx Definition


Wind Chill Definition


Weather Definition


00:00 14.6 10.9 79 0.0 15 4   101.58     LegendNANA
01:00 14.0 11.0 83 0.0 27 3   101.62     LegendNANA
02:00 12.6 10.6 87 0.0 0 1   101.64     LegendNANA
03:00 11.8 10.1 89 0.0 17 3   101.69     LegendNANA
04:00 12.5 10.4 87 0.0 16 3   101.70     LegendNANA
05:00 11.9 10.2 89 0.0 12 2   101.75     LegendNANA
06:00 13.6 10.8 83 0.1 36 1   101.82     LegendNANA
07:00 14.4 10.8 79 0.2 18 3   101.88     LegendNANA
08:00 16.4 11.2 71 0.2 18 4   101.91     LegendNANA
09:00 17.6 10.0 61 0.2 18 6   101.93     LegendNANA
10:00 17.2 9.5 61 0.0 22 5   101.97     LegendNANA
11:00 19.3 11.2 59 0.3 23 6   101.97     LegendNANA
12:00 18.1 10.0 59 0.0 19 9   102.01     LegendNANA
13:00 19.1 9.9 55 0.1 23 7   102.00     LegendNANA
14:00 20.2 8.5 47 0.1 26 9   102.00     LegendNANA
15:00 21.4 7.3 40 0.1 26 11   102.00     LegendNANA
16:00 21.5 7.8 41 0.0 26 10   101.97     LegendNANA
17:00 21.7 7.9 41 0.0 29 10   101.95     LegendNANA
18:00 20.7 8.1 44 0.1 26 11   101.91     LegendNANA
19:00 19.6 8.7 49 0.0 26 8   101.91     LegendNANA
20:00 17.8 9.0 56 0.0 26 7   101.90     LegendNANA
21:00 15.8 8.5 62 0.0   0   101.94     LegendNANA
22:00 13.9 10.0 77 0.0 0 1   101.94     LegendNANA
23:00 12.6 9.4 81 0.0   0   101.96     LegendNANA

Notes on Data Quality.

Legend

  • E = Estimated
  • M = Missing
  • NA = Not Available*
  • [empty] = Indicates an unobserved value
Date modified: